Location: Newark
(31.5350°N, 35.0986°E)
Time: 07:07:41
(UTC+00:00)

Vanguard 1 - Pass Details

Date: 27 September 2019
Orbit: 653 x 3830 km, 34.2° (Epoch: 20 October)

Event Time Altitude Azimuth Distance (km) Brightness Sun altitude
Rises 05:04:22 0° 290° (WNW) 7,579 14.0 18.9°
Reaches altitude 10° 05:10:27 10° 285° (WNW) 6,183 13.6 20.2°
Maximum altitude 05:26:01 39° 225° (SW) 3,013 12.5 23.4°
Drops below altitude 10° 05:35:12 10° 159° (SSE) 3,685 13.7 25.2°
Sets 05:37:52 0° 151° (SSE) 4,336 14.1 25.8°
